loading
|
Showing default

YAOGAN-43 02E, 60949

Orbit data source: Space-Track

YAOGAN-43 02E, 60949 is a Chinese payload satellite in LEO that was launched on Tue, 03 Sep 2024 UTC via a CHANG ZHENG 4B launch vehicle from the Xichang Space Center, China (XSC). Payloads include a variety of satellites, spacecraft, and rockets equipped with specific instruments for various scientific and technological missions. These include communications satellites like Starlink; space stations such as the ISS; scientific satellites like the Hubble; Earth observation satellites from companies like Planet Labs, Umbra, and HawkEye 360; GPS; miniature CubeSats for education and research; and military/defense satellites.

Loading next visibility...
Loading greatness...
YAOGAN-43 02E details
Identifier
60949, 2024-156E
Orbit
LEO
Last TLE update13 hours ago
Origin
Flag of CNCN / PRC
ManufacturerUnknown
Mission statusOperational
MissionUnknown
Bus & MotorUnknown
MassUnknown
Launch date (UTC)
2024-09-03 (2 weeks ago)
Launch vehicle
CHANG ZHENG 4B
Launch site
Xichang Space Center, China (XSC)
Object type
Payload
Rocket body
Debris
Radar Cross SectionMedium (>0.1 m² and <1 m²)

Expand to show TLE details & history

TLE from 13 hours ago
0 YAOGAN-43 02E
1 60949U 24156E   24261.38541916  .00080309  00000-0  31379-2 0  9993
2 60949  34.9956 249.5779 0006272  24.4489 335.6523 15.24662257  2141
Epoch: 2024-09-17T09:15Z
Definitive object data (Epoch: 2024-09-17T09:15:00.215Z)
Latitude
Longitude114.02617°
Altitude486.781 km
Speed7.626 km/s
True Right ascension16h 38m 18s
True Declination0° 00' 00"
Sunlit
Object was in daylight at TLE epoch
Predictive object data (real-time)
Latitude34.14777°
Longitude-174.89856°
Altitude489.098 km
Speed7.628 km/s
Apparent Right ascension23h 55m 07s
Apparent Declination-1° 42' 55"
Sunlit
Object is in full shadow
Predictive observer data (real-time)
Local Sidereal Time14:58:20
Azimuth59.382° ENE
Elevation-33.616°
Doppler factor1
Orbital elements
Apogee499.364 km
Perigee490.742 km
Semi-major axis6,873.19 km
Eccentricity0.0006272
Inclination34.9956°
RAAN249.5779°
Arg. of periapsis24.4489°
True anomaly335.62265°
Mean anomaly335.6523°
Eccentric anomaly335.63748°
Mean motion3.80895 °/min
BSTAR0.0031379
Period94.51 mins
No data available

YAOGAN-43 02E Visibility forecast

Observer location: 39.9160978°, -105.1181434

YAOGAN-43 02E is not visible in the next 10 days
Span
Click to sort rows by Start time (UTC) header in descending order
Start Az.
Max El. time (UTC)
Max El. Az.
Max El.
End time (UTC)
End Az.